CAPE
1 1 0 0 0 0 0 0 0 0 0 0 0 0 0 0 0 0 0 0 0 0 0 0 0 0 0 0 0 0 0 0 0 0 0 0 0 0 0 0 0 0 0 0 0
1 1 0 0 0 0 0 0 0 0 0 0 0 0 0 0 0 0 0 0 0 0 0 0 0 0 0 0 0 0 0 0 0 0 0 0 0 0 0 0 0 0 0 0 0
1 0 0 0 0 0 0 0 0 0 0 0 0 0 0 0 0 0 0 0 0 0 0 0 0 0 0 0 0 0 0 0 0 0 0 0 0 0 0 0 0 0 0 0 0
1 0 0 0 0 0 0 0 0 0 0 0 0 0 0 0 0 0 0 0 0 0 0 0 0 0 0 0 0 0 0 0 0 0 0 0 0 0 0 0 0 0 0 0 0
0 0 0 0 0 0 0 0 0 0 0 0 0 0 0 0 0 0 0 0 0 0 0 0 0 0 0 0 0 0 0 0 0 0 0 0 0 0 0 0 0 0 0 0 0
0 0 0 0 0 0 0 0 0 0 0 0 0 0 0 0 0 0 0 0 0 0 0 0 0 0 0 0 0 0 0 0 0 0 0 0 0 0 0 0 0 0 0 0 0
0 0 0 0 0 0 0 0 0 0 0 0 0 0 0 0 0 0 0 0 0 0 0 0 0 0 0 0 0 0 0 0 0 0 0 0 0 0 0 0 0 0 0 0 0
0 0 0 0 0 0 0 0 0 0 0 0 0 0 0 0 0 0 0 0 0 0 0 0 0 0 0 0 0 0 0 0 0 0 0 0 0 0 0 0 0 0 0 0 0
0 0 0 0 0 0 0 0 0 0 0 0 0 0 0 0 0 0 0 0 0 0 0 0 0 0 0 0 0 0 0 0 0 0 0 0 0 0 0 0 0 0 0 0 0
0 0 0 0 0 0 0 0 0 0 0 0 0 0 0 0 0 0 0 0 0 0 0 0 0 0 0 0 0 0 0 0 0 0 0 0 0 0 0 0 0 0 0 0 0
0 0 0 0 0 0 0 0 0 0 0 0 0 0 0 0 0 0 0 0 0 0 0 0 0 0 0 0 0 0 0 0 0 0 0 0 0 0 0 0 0 0 0 0 0
0 0 0 0 0 0 0 0 0 0 0 0 0 0 0 0 0 0 0 0 0 0 0 0 0 0 0 0 0 0 0 0 0 0 0 0 0 0 0 0 8 4 0 0 1
0 0 0 0 0 0 0 0 0 0 0 0 0 0 0 0 0 0 0 0 0 0 0 0 0 0 0 0 0 0 0 0 0 0 0 0 0 0 0 0 0 0 0 5 0
0 0 0 0 0 0 0 0 0 0 0 0 0 0 0 0 0 0 0 0 0 0 0 0 0 0 0 0 0 0 0 0 0 0 0 0 0 0 0 2 14 36 6 17 22
0 0 0 0 0 0 0 0 0 0 0 0 0 0 0 0 0 0 0 0 0 0 0 0 0 0 0 0 0 0 0 0 0 0 0 0 0 0 34 55 36 26 2 0 1
0 0 0 0 0 0 0 0 0 0 0 0 0 0 0 0 0 0 0 0 0 0 0 0 0 0 0 0 0 0 0 0 0 0 0 0 7 1 2 0 0 22 0 0 0
0 0 0 0 0 0 0 0 0 0 0 0 0 0 0 0 0 0 0 0 0 0 0 0 0 0 0 0 0 0 0 0 0 0 0 0 5 0 1 2 0 11 0 0 12
0 0 0 0 0 0 0 0 0 0 0 0 0 0 0 0 0 0 0 0 0 0 0 0 0 0 0 0 0 0 0 0 0 0 0 0 0 0 0 0 0 0 0 40 22
0 0 0 0 0 0 0 0 0 0 0 0 0 0 0 0 0 0 0 0 0 0 0 0 0 0 0 0 0 0 0 0 0 0 0 0 0 0 0 0 0 0 0 0 0
0 0 0 0 0 0 0 0 0 0 0 0 0 0 0 0 0 0 0 0 0 0 0 0 0 0 0 0 0 0 0 0 4 2 0 0 0 0 0 0 0 0 0 0 0
0 0 0 0 0 0 0 0 0 0 0 0 0 0 0 0 0 0 0 0 0 0 0 0 0 0 0 0 0 0 0 0 3 22 16 0 0 58 9 0 0 0 0 0 0
0 0 0 0 0 0 0 0 0 0 0 0 0 0 0 0 0 0 0 0 0 0 0 0 0 0 0 0 0 0 0 0 0 0 4 0 2 100 27 7 0 1 0 0 0
0 0 0 0 0 0 0 0 0 0 0 0 0 0 0 0 0 0 0 0 8 0 1 2 0 0 0 0 0 0 0 0 0 0 0 10 0 0 1 27 0 8 8 0 0
0 0 0 0 0 0 0 0 0 0 0 0 0 0 0 0 0 0 0 0 0 0 0 1 0 0 0 0 0 0 0 0 1 0 0 0 0 0 0 0 0 0 1 0 0
0 0 0 0 0 0 0 0 0 0 0 0 0 0 0 0 0 0 0 0 0 0 0 0 0 3 0 0 0 0 0 0 0 0 1 0 0 2 1 0 0 0 0 0 0
0 0 0 0 0 0 0 0 0 0 0 0 0 0 0 0 0 0 0 0 0 0 0 0 0 0 0 0 6 0 0 0 0 0 0 38 1 0 6 0 0 0 0 0 2
0 0 0 0 0 0 0 0 0 0 0 0 0 0 0 0 0 0 0 0 0 0 0 0 0 0 0 0 4 0 0 2 63 90 30 0 0 0 0 0 0 0 0 0 0
CIN
-0 -0 -0 -0 -0 -0 -0 -0 -0 -0 -0 -0 -0 -0 -0 -0 -0 -0 -0 -0 -0 -0 -0 -0 -0 -0 -0 -0 -0 -0 -0 -0 -0 -0 -0 -0 -0 -0 -0 -0 -0 -0 -0 -0 -0
-0 -0 -0 -0 -0 -0 -0 -0 -0 -0 -0 -0 -0 -0 -0 -0 -0 -0 -0 -0 -0 -0 -0 -0 -0 -0 -0 -0 -0 -0 -0 -0 -0 -0 -0 -0 -0 -0 -0 -0 -0 -0 -0 -0 -0
-0 -0 -0 -0 -0 -0 -0 -0 -0 -0 -0 -0 -0 -0 -0 -0 -0 -0 -0 -0 -0 -0 -0 -0 -0 -0 -0 -0 -0 -0 -0 -0 -0 -0 -0 -0 -0 -0 -0 -0 -0 -0 -0 -0 -0
-0 -0 -0 -0 -0 -0 -0 -0 -0 -0 -0 -0 -0 -0 -0 -0 -0 -0 -0 -0 -0 -0 -0 -0 -0 -0 -0 -0 -0 -0 -0 -0 -0 -0 -0 -0 -0 -0 -0 -0 -0 -0 -0 -0 -0
-0 -0 -0 -0 -0 -0 -0 -0 -0 -0 -0 -0 -0 -0 -0 -0 -0 -0 -0 -0 -0 -0 -0 -0 -0 -0 -0 -0 -0 -0 -0 -0 -0 -0 -0 -0 -0 -0 -0 -0 -0 -0 -0 -0 -0
-0 -0 -0 -0 -0 -0 -0 -0 -0 -0 -0 -0 -0 -0 -0 -0 -0 -0 -0 -0 -0 -0 -0 -0 -0 -0 -0 -0 -0 -0 -0 -0 -0 -0 -0 -0 -0 -0 -0 -0 -0 -0 -0 -0 -0
-0 -0 -0 -0 -0 -0 -0 -0 -0 -0 -0 -0 -0 -0 -0 -0 -0 -0 -0 -0 -0 -0 -0 -0 -0 -0 -0 -0 -0 -0 -0 -0 -0 -0 -0 -0 -0 -0 -0 -0 -0 -0 -0 -0 -0
-0 -0 -0 -0 -0 -0 -0 -0 -0 -0 -0 -0 -0 -0 -0 -0 -0 -0 -0 -0 -0 -0 -0 -0 -0 -0 -0 -0 -0 -0 -0 -0 -0 -0 -0 -0 -0 -0 -0 -0 -0 -0 -0 -0 -0
-0 -0 -0 -0 -0 -0 -0 -0 -0 -0 -0 -0 -0 -0 -0 -0 -0 -0 -0 -0 -0 -0 -0 -0 -0 -0 -0 -0 -0 -0 -0 -0 -0 -0 -0 -0 -0 -0 -0 -0 -0 -0 -0 -0 -0
-0 -0 -0 -0 -0 -0 -0 -0 -0 -0 -0 -0 -0 -0 -0 -0 -0 -0 -0 -0 -0 -0 -0 -0 -0 -0 -0 -0 -0 -0 -0 -0 -0 -0 -0 -0 -0 -0 -0 -0 -0 -0 -0 -0 -0
-0 -0 -0 -0 -0 -0 -0 -0 -0 -0 -0 -0 -0 -0 -0 -0 -0 -0 -0 -0 -0 -0 -0 -0 -0 -0 -0 -0 -0 -0 -0 -0 -0 -0 -0 -0 -0 -0 -0 -0 -0 -0 -0 -0 -0
-0 -0 -0 -0 -0 -0 -0 -0 -0 -0 -0 -0 -0 -0 -0 -0 -0 -0 -0 -0 -0 -0 -0 -0 -0 -0 -0 -0 -0 -0 -0 -0 -0 -0 -0 -0 -0 -0 -0 -0 -25 -43 -0 -0 -19
-0 -0 -0 -0 -0 -0 -0 -0 -0 -0 -0 -0 -0 -0 -0 -0 -0 -0 -0 -0 -0 -0 -0 -0 -0 -0 -0 -0 -0 -0 -0 -0 -0 -0 -0 -0 -0 -0 -0 -0 -2 -3 -0 -51 -0
-0 -0 -0 -0 -0 -0 -0 -0 -0 -0 -0 -0 -0 -0 -0 -0 -0 -0 -0 -0 -0 -0 -0 -0 -0 -0 -0 -0 -0 -0 -0 -0 -0 -0 -0 -0 -0 -0 -0 -18 -38 -13 -59 -78 -44
-0 -0 -0 -0 -0 -0 -0 -0 -0 -0 -0 -0 -0 -0 -0 -0 -0 -0 -0 -0 -0 -0 -0 -0 -0 -0 -0 -0 -0 -0 -0 -0 -0 -0 -0 -0 -0 -0 -115 -69 -38 -72 -51 -0 -62
-0 -0 -0 -0 -0 -0 -0 -0 -0 -0 -0 -0 -0 -0 -0 -0 -0 -0 -0 -0 -0 -0 -0 -0 -0 -0 -0 -0 -0 -0 -0 -0 -0 -0 -0 -0 -24 -148 -95 -0 -0 -103 -0 -0 -2
-0 -0 -0 -0 -0 -0 -0 -0 -0 -0 -0 -0 -0 -0 -0 -0 -0 -0 -0 -0 -0 -0 -0 -0 -0 -0 -0 -0 -0 -0 -0 -0 -0 -0 -0 -0 -13 -0 -23 -38 -0 -142 -0 -0 -43
-0 -0 -0 -0 -0 -0 -0 -0 -0 -0 -0 -0 -0 -0 -0 -0 -0 -0 -0 -0 -0 -0 -0 -0 -0 -0 -0 -0 -0 -0 -0 -0 -0 -0 -0 -0 -0 -0 -0 -0 -4 -2 -5 -38 -30
-0 -0 -0 -0 -0 -0 -0 -0 -0 -0 -0 -0 -0 -0 -0 -0 -0 -0 -0 -0 -0 -0 -0 -0 -0 -0 -0 -0 -0 -0 -0 -0 -1 -0 -0 -0 -0 -0 -0 -0 -0 -0 -0 -0 -19
-0 -0 -0 -0 -0 -0 -0 -0 -0 -0 -0 -0 -0 -0 -0 -0 -0 -0 -0 -0 -0 -0 -0 -0 -0 -0 -0 -0 -0 -0 -0 -0 -4 -4 -0 -0 -0 -0 -25 -0 -0 -0 -0 -0 -0
-0 -0 -0 -0 -0 -0 -0 -0 -0 -0 -0 -0 -0 -0 -0 -0 -0 -0 -0 -0 -0 -0 -0 -0 -0 -0 -0 -0 -0 -0 -0 -0 -10 -7 -3 -0 -0 -67 -97 -0 -10 -0 -0 -0 -0
-0 -0 -0 -0 -0 -0 -0 -0 -0 -0 -0 -0 -0 -0 -0 -0 -0 -0 -0 -0 -0 -0 -0 -0 -0 -0 -0 -0 -0 -0 -0 -0 -1 -1 -4 -0 -9 -11 -37 -15 -0 -2 -0 -0 -0
-0 -0 -0 -0 -0 -0 -0 -0 -0 -0 -0 -0 -0 -0 -0 -0 -0 -0 -0 -0 -2 -0 -11 -4 -0 -0 -0 -0 -0 -0 -0 -0 -0 -0 -0 -1 -0 -0 -23 -51 -16 -24 -32 -0 -0
-0 -0 -0 -0 -0 -0 -0 -0 -0 -0 -0 -0 -0 -0 -0 -0 -1 -0 -0 -0 -0 -0 -0 -5 -0 -4 -0 -0 -0 -0 -0 -0 -1 -1 -0 -0 -0 -0 -0 -0 -0 -0 -26 -0 -0
-0 -0 -0 -0 -0 -0 -0 -0 -0 -0 -0 -0 -0 -0 -0 -0 -0 -0 -0 -0 -0 -0 -0 -1 -1 -8 -3 -0 -0 -0 -0 -0 -0 -0 -6 -0 -0 -4 -13 -0 -0 -0 -0 -0 -0
-0 -0 -0 -0 -0 -0 -0 -0 -0 -0 -0 -0 -0 -0 -0 -0 -0 -0 -0 -0 -0 -0 -0 -0 -0 -0 -0 -0 -6 -0 -0 -0 -0 -1 -7 -8 -0 -0 -0 -0 -0 -0 -0 -0 -11
-0 -0 -0 -0 -0 -0 -0 -0 -0 -0 -0 -0 -0 -0 -0 -0 -0 -0 -0 -0 -0 -0 -0 -0 -0 -0 -0 -0 -9 -0 -0 -4 -10 -8 -12 -5 -2 -0 -0 -0 -0 -0 -0 -0 -0
Wind_Speed
17 15 15 15 13 13 14 12 11 9 8 8 9 11 12 12 11 19 20 18 18 21 23 23 23 23 12 18 20 20 24 27 28 26 31 29 29 28 28 23 24 23 24 23 23
19 17 16 16 17 19 19 19 20 19 8 6 13 12 13 15 20 23 19 18 18 21 23 23 22 21 20 17 17 18 22 25 30 33 34 34 31 32 32 32 30 30 27 31 29
20 18 17 17 18 18 18 18 15 10 8 9 10 10 9 9 20 23 19 19 18 20 21 20 16 20 22 23 18 21 22 27 35 36 34 36 36 33 36 37 36 36 36 34 31
21 17 14 9 9 9 9 9 9 8 8 9 10 9 8 17 21 20 19 17 15 16 18 22 23 24 21 23 25 23 26 29 34 34 34 37 41 39 38 40 39 41 40 38 38
21 16 13 10 9 9 8 9 9 9 10 10 9 8 17 19 20 18 15 11 10 13 14 25 26 26 24 25 30 28 30 32 34 37 37 36 37 41 41 38 39 39 42 45 43
22 17 14 12 9 9 8 9 10 10 11 11 10 9 18 21 18 16 13 11 14 25 25 27 25 26 22 28 28 27 32 33 33 33 33 36 37 34 37 34 38 37 38 40 41
23 19 15 14 11 9 10 10 10 11 12 12 14 17 19 19 16 14 10 14 16 19 21 24 24 26 27 26 23 30 33 29 26 27 31 29 39 37 35 36 37 38 36 35 35
24 20 16 14 12 9 10 10 11 11 11 12 14 15 17 18 14 11 19 19 19 13 15 16 17 21 19 15 19 25 24 37 35 35 34 24 41 29 34 35 37 36 38 29 32
23 19 17 16 16 11 10 9 10 10 10 10 14 16 16 15 16 15 17 20 17 16 13 11 12 18 22 24 30 27 40 45 42 35 41 37 45 35 35 42 43 41 36 34 33
24 21 19 18 17 14 12 9 10 7 11 11 7 14 12 17 17 16 9 18 12 11 15 17 16 18 25 29 37 44 43 40 44 38 34 38 48 44 41 40 43 47 46 41 36
25 23 21 20 19 20 23 18 18 16 14 10 11 13 19 20 13 11 12 17 17 20 22 23 23 21 22 31 32 34 36 36 33 32 34 34 34 43 42 40 46 46 43 41 42
27 24 22 21 20 21 18 20 23 12 19 4 7 13 9 14 16 20 17 22 26 25 20 26 25 30 36 32 32 30 34 34 32 35 36 35 34 46 40 38 39 38 41 37 36
28 25 23 22 19 15 13 20 20 17 18 12 9 9 14 14 14 16 15 21 23 22 28 29 23 21 33 36 37 32 33 37 37 36 29 27 22 43 39 34 30 28 19 14 18
28 24 23 22 19 17 18 22 25 20 19 14 12 13 13 12 14 8 14 18 20 23 27 23 23 37 33 31 31 34 34 32 29 32 35 26 25 12 26 33 35 28 25 30 20
28 23 21 19 17 21 23 21 21 17 22 13 15 14 14 14 17 15 12 14 16 19 24 20 20 26 28 27 28 32 31 28 29 28 31 24 14 19 20 21 30 28 18 24 16
28 23 11 16 15 11 22 21 17 19 19 15 15 14 15 13 14 15 14 10 17 17 14 17 17 24 25 24 25 28 32 36 29 28 28 21 22 24 32 17 30 27 18 17 16
26 22 14 13 15 23 25 18 18 19 16 19 20 26 26 18 13 19 22 19 22 28 27 22 20 19 26 32 30 33 34 32 31 30 26 25 21 34 39 20 26 27 24 12 10
24 3 14 10 7 24 22 18 18 23 23 25 29 28 21 19 15 20 21 24 23 26 30 33 32 22 32 31 30 29 26 28 32 33 31 23 16 27 26 27 23 21 23 21 18
30 20 16 13 9 20 19 17 18 23 24 28 31 25 25 29 29 29 28 25 24 23 26 29 24 26 34 29 28 29 23 22 28 31 30 22 17 29 28 24 19 21 25 21 22
28 21 15 15 19 18 18 16 18 22 25 27 26 22 30 31 32 31 28 24 28 28 24 25 35 23 29 33 26 23 26 32 26 31 30 20 20 27 26 27 29 25 24 23 23
24 23 16 17 19 17 15 15 22 27 28 24 24 26 27 30 29 30 25 29 25 26 27 28 26 28 31 29 34 34 29 28 29 21 28 29 20 16 21 25 27 25 26 26 24
27 22 15 16 19 15 19 25 24 27 22 24 24 26 28 33 32 29 27 23 27 27 30 25 28 31 30 29 21 23 22 27 27 25 26 26 29 20 24 22 29 33 33 25 23
30 18 13 18 20 23 25 28 27 29 26 22 24 28 31 31 33 23 25 23 22 31 29 26 27 37 36 25 25 32 32 29 31 31 32 35 36 37 44 40 36 34 28 27 30
22 22 18 20 22 25 28 27 28 28 26 24 24 25 27 29 28 32 36 31 35 33 32 26 25 27 33 33 35 37 33 29 27 28 36 24 51 47 39 42 37 32 33 36 34
20 21 24 25 25 30 26 25 27 27 26 28 30 33 36 39 38 34 34 37 32 29 27 25 29 27 27 28 29 29 29 24 20 16 22 40 37 43 42 36 35 29 31 33 34
25 25 23 24 20 23 21 24 28 31 32 32 32 33 33 35 34 41 40 36 34 35 27 24 31 31 32 25 26 29 23 16 20 21 23 34 32 31 34 29 31 34 35 36 35
26 26 20 20 21 24 25 32 31 33 27 32 35 37 35 33 34 32 31 31 29 28 27 27 27 29 31 24 24 25 20 16 22 23 31 31 33 29 35 38 40 41 40 39 35
Wind_Direction
318 307 303 303 291 288 286 274 261 236 183 199 221 237 252 265 251 44 7 26 16 319 314 316 306 308 342 320 307 312 300 299 295 302 301 304 306 310 312 306 299 303 292 294 313
326 319 310 307 313 316 317 313 314 312 239 124 285 265 288 300 35 24 33 34 20 3 351 338 342 339 333 326 328 317 307 302 295 301 304 297 300 299 302 298 296 297 300 294 306
330 323 317 314 313 313 310 308 289 255 222 209 192 179 180 116 51 31 70 66 65 34 22 11 8 350 337 323 323 320 309 311 301 302 306 299 295 300 296 290 290 291 293 294 294
332 321 304 271 254 258 253 241 229 222 199 185 200 185 171 81 38 56 79 83 74 56 36 13 356 349 341 336 333 321 317 315 311 308 308 302 293 292 291 290 292 289 290 289 286
330 315 297 276 256 250 239 234 229 211 187 185 193 210 77 67 47 78 88 96 81 58 39 3 357 350 339 333 326 323 318 317 314 311 308 307 300 294 291 295 293 290 286 283 283
327 314 296 286 257 247 231 225 208 199 168 155 139 126 67 40 69 82 86 82 61 17 8 13 7 356 352 338 333 333 325 322 321 317 313 303 299 299 297 300 294 292 291 286 282
325 315 297 289 269 253 247 226 210 195 156 124 92 75 62 48 69 74 89 53 50 43 24 16 15 4 352 349 356 334 325 335 336 328 317 309 294 292 302 299 293 292 291 289 284
326 315 299 288 274 253 238 208 199 167 157 109 82 68 48 59 63 81 36 34 28 39 34 33 30 18 13 20 4 348 339 324 330 334 339 328 297 301 306 299 293 294 296 290 287
321 310 300 294 289 262 234 190 160 158 150 115 66 55 40 59 57 54 39 26 38 32 29 27 18 6 357 346 339 348 329 324 331 339 327 320 306 310 308 303 298 294 292 289 287
319 310 302 297 293 278 251 137 99 130 85 79 103 39 64 34 38 42 85 35 34 27 18 9 355 346 344 340 333 328 331 333 332 339 332 320 308 305 304 301 297 294 292 284 284
319 309 302 297 298 304 344 38 25 27 41 48 41 39 27 29 51 45 56 25 23 11 356 1 352 349 348 342 343 341 340 337 338 340 334 328 318 309 305 300 298 293 290 291 285
318 310 301 293 288 305 29 26 3 33 4 83 162 32 48 35 24 31 36 13 4 358 4 354 348 337 331 341 342 344 340 339 339 343 339 331 319 311 312 307 300 298 296 293 288
316 309 300 289 277 41 54 17 20 24 8 27 84 60 37 33 20 20 33 14 3 360 354 348 344 351 337 335 336 342 341 343 340 343 341 334 318 311 306 272 257 242 248 248 292
312 302 296 289 10 26 18 2 359 18 9 31 44 40 40 34 10 58 37 21 11 358 351 355 355 330 336 337 339 337 344 342 341 341 342 343 296 293 268 272 281 253 248 278 287
312 298 284 7 19 9 1 9 7 28 355 51 40 55 36 29 16 16 39 23 3 356 351 342 344 340 336 335 343 337 342 340 336 333 340 345 336 266 274 252 296 296 322 286 310
311 299 278 40 37 50 359 9 28 11 1 24 34 28 18 10 5 21 15 13 1 349 342 337 344 346 339 343 345 345 341 337 337 340 346 354 339 339 341 286 268 286 314 300 319
309 295 47 48 39 317 346 14 7 5 23 12 8 359 355 354 358 2 355 354 348 343 343 344 347 346 356 344 343 341 342 342 346 349 341 358 340 312 311 297 278 276 293 326 306
307 331 51 66 80 352 352 10 356 354 356 351 348 349 357 357 14 359 353 346 352 348 342 339 340 355 344 343 338 341 347 344 337 337 331 343 338 311 335 329 308 286 285 315 321
322 26 38 51 64 6 357 358 359 350 348 345 344 352 356 352 356 350 349 347 355 355 342 341 340 344 337 341 342 338 330 337 330 329 328 340 330 308 321 321 319 307 329 329 340
5 21 25 33 17 9 357 3 356 358 351 351 349 353 345 345 345 346 348 352 352 357 357 346 329 341 340 339 337 330 334 329 327 327 328 334 333 311 313 313 299 307 318 321 325
12 13 30 27 11 10 14 360 346 340 344 349 346 342 343 342 344 343 345 344 357 351 347 339 331 331 336 341 331 330 328 325 324 320 322 324 325 328 315 320 317 296 305 291 302
6 10 37 33 4 9 353 343 348 342 349 344 343 342 342 339 336 336 335 336 341 343 337 336 330 325 327 335 333 339 341 340 330 327 321 318 305 317 318 318 315 293 294 320 303
0 17 33 17 6 347 338 334 341 344 347 348 341 339 340 336 335 344 337 336 340 337 337 336 330 326 331 341 345 330 326 326 321 313 309 304 298 301 296 299 301 307 308 310 304
10 7 15 4 -0 348 339 338 338 340 340 343 342 341 340 337 336 332 330 333 330 333 334 330 320 317 311 315 324 323 325 325 321 311 307 270 271 289 301 294 299 304 305 300 302
13 3 2 349 347 338 342 341 339 338 345 345 338 335 333 330 330 329 331 331 333 330 331 330 319 319 314 315 320 318 320 322 314 275 255 265 259 288 291 284 291 308 310 308 308
2 358 356 347 356 350 348 344 340 341 340 337 334 336 335 331 332 330 332 333 331 330 330 329 320 325 320 321 327 325 322 294 257 253 248 271 267 306 291 304 307 306 310 305 302
357 358 1 355 355 348 346 340 339 339 345 340 335 333 333 335 334 331 329 322 314 317 316 314 313 317 310 326 332 337 350 360 334 333 317 307 306 313 306 302 302 302 303 306 306